RUK7EX EIDW-EGCC

Flight info

Callsign RUK7EX
Flight time 0h 37m
Altitude 21000
Route BOFUM3J BOFUM Q37 MALUD
Aircraft B738/M-SDE2E3FGHIRWXY/LB1

Departure

Time 2026-05-07 22:21
Airport Dublin Airport (EIDW)

Arrival

Time 2026-05-07 22:58
Airport Manchester Airport (EGCC)
Time Latitude Longitude Altitude Speed Heading
2026-05-07 21:55 53.43024 -6.25007 216 ft 0 kts
2026-05-07 22:09 53.43021 -6.25007 227 ft 2 kts
2026-05-07 22:09 53.43004 -6.25011 225 ft 2 kts
2026-05-07 22:09 53.42988 -6.25014 224 ft 2 kts
2026-05-07 22:09 53.42972 -6.25019 220 ft 2 kts
2026-05-07 22:10 53.42956 -6.25017 220 ft 2 kts 336°
2026-05-07 22:10 53.42948 -6.25011 220 ft 0 kts 313°
2026-05-07 22:13 53.42949 -6.25013 220 ft 2 kts 310°
2026-05-07 22:13 53.42959 -6.25096 219 ft 8 kts 275°
2026-05-07 22:13 53.42963 -6.25201 220 ft 13 kts 270°
2026-05-07 22:14 53.42953 -6.25347 222 ft 13 kts 297°
2026-05-07 22:14 53.43015 -6.25417 224 ft 7 kts 332°
2026-05-07 22:14 53.43059 -6.25453 223 ft 7 kts 334°
2026-05-07 22:14 53.43103 -6.25491 223 ft 8 kts 332°
2026-05-07 22:15 53.43166 -6.25534 222 ft 16 kts 338°
2026-05-07 22:15 53.43275 -6.25597 219 ft 19 kts 347°
2026-05-07 22:15 53.43401 -6.25631 219 ft 19 kts 38°
2026-05-07 22:15 53.43404 -6.25469 218 ft 15 kts 94°
2026-05-07 22:16 53.43392 -6.25227 219 ft 24 kts 93°
2026-05-07 22:16 53.43379 -6.24996 221 ft 5 kts 95°
2026-05-07 22:16 53.43377 -6.24944 221 ft 4 kts 96°
2026-05-07 22:16 53.43373 -6.24892 224 ft 4 kts 97°
2026-05-07 22:17 53.43371 -6.24875 223 ft 0 kts 97°
2026-05-07 22:19 53.43371 -6.24864 222 ft 5 kts 97°
2026-05-07 22:19 53.43366 -6.24787 221 ft 8 kts 95°
2026-05-07 22:19 53.43360 -6.24671 219 ft 15 kts 96°
2026-05-07 22:20 53.43422 -6.24558 219 ft 15 kts
2026-05-07 22:20 53.43506 -6.24552 219 ft 8 kts 346°
2026-05-07 22:20 53.43526 -6.24597 220 ft 3 kts 293°
2026-05-07 22:20 53.43529 -6.24633 220 ft 15 kts 276°
2026-05-07 22:21 53.43569 -6.25374 220 ft 111 kts 275°
2026-05-07 22:21 53.43655 -6.27072 376 ft 175 kts 275°
2026-05-07 22:21 53.43769 -6.29187 1270 ft 201 kts 272°
2026-05-07 22:21 53.43751 -6.31509 2359 ft 206 kts 264°
2026-05-07 22:22 53.43589 -6.34107 2876 ft 237 kts 267°
2026-05-07 22:22 53.44050 -6.36882 3467 ft 265 kts 303°
2026-05-07 22:22 53.45504 -6.38835 4063 ft 266 kts 338°
2026-05-07 22:22 53.46659 -6.39149 4404 ft 246 kts
2026-05-07 22:23 53.48391 -6.37493 5085 ft 201 kts 59°
2026-05-07 22:23 53.48861 -6.36162 5477 ft 206 kts 56°
2026-05-07 22:23 53.49986 -6.34732 6199 ft 206 kts
2026-05-07 22:23 53.51406 -6.34883 6810 ft 213 kts 345°
2026-05-07 22:24 53.53515 -6.34768 7113 ft 256 kts 26°
2026-05-07 22:24 53.54865 -6.32641 7345 ft 283 kts 63°
2026-05-07 22:24 53.55252 -6.30534 7723 ft 289 kts 87°
2026-05-07 22:24 53.54870 -6.27274 8560 ft 287 kts 121°
2026-05-07 22:25 53.53755 -6.24511 9496 ft 287 kts 126°
2026-05-07 22:25 53.52918 -6.21423 10216 ft 297 kts 104°
2026-05-07 22:25 53.52641 -6.17956 10989 ft 302 kts 97°
2026-05-07 22:25 53.52500 -6.14397 11708 ft 309 kts 95°
2026-05-07 22:26 53.52357 -6.09567 12682 ft 315 kts 95°
2026-05-07 22:26 53.52263 -6.07076 13147 ft 317 kts 98°
2026-05-07 22:26 53.51772 -6.03446 13728 ft 320 kts 111°
2026-05-07 22:26 53.51032 -5.99952 14324 ft 323 kts 111°
2026-05-07 22:27 53.50431 -5.96301 14945 ft 327 kts 104°
2026-05-07 22:27 53.49981 -5.92530 15569 ft 330 kts 103°
2026-05-07 22:27 53.49519 -5.88742 16169 ft 332 kts 104°
2026-05-07 22:27 53.49045 -5.84933 16755 ft 336 kts 100°
2026-05-07 22:28 53.49210 -5.80998 17259 ft 343 kts 75°
2026-05-07 22:28 53.49939 -5.77192 17855 ft 344 kts 72°
2026-05-07 22:28 53.50646 -5.73336 18332 ft 347 kts 76°
2026-05-07 22:28 53.51170 -5.69414 18736 ft 349 kts 80°
2026-05-07 22:29 53.51634 -5.65403 19185 ft 351 kts 80°
2026-05-07 22:29 53.52132 -5.61359 19621 ft 354 kts 78°
2026-05-07 22:29 53.52673 -5.57319 20062 ft 356 kts 78°
2026-05-07 22:29 53.53237 -5.53261 20486 ft 358 kts 77°
2026-05-07 22:30 53.53764 -5.49148 20892 ft 360 kts 84°
2026-05-07 22:30 53.53762 -5.44972 20987 ft 356 kts 98°
2026-05-07 22:30 53.53436 -5.40837 20995 ft 359 kts 99°
2026-05-07 22:30 53.53168 -5.36658 20984 ft 360 kts 95°
2026-05-07 22:31 53.53115 -5.32519 20992 ft 359 kts 91°
2026-05-07 22:31 53.53130 -5.28312 21002 ft 360 kts 91°
2026-05-07 22:31 53.53106 -5.24099 20995 ft 360 kts 92°
2026-05-07 22:31 53.53023 -5.19909 20992 ft 359 kts 94°
2026-05-07 22:32 53.52913 -5.15725 20993 ft 359 kts 94°
2026-05-07 22:32 53.52781 -5.11531 20999 ft 359 kts 94°
2026-05-07 22:32 53.52639 -5.07345 21001 ft 359 kts 94°
2026-05-07 22:32 53.52496 -5.03152 20997 ft 359 kts 94°
2026-05-07 22:33 53.52357 -4.99025 20999 ft 359 kts 94°
2026-05-07 22:33 53.52219 -4.94841 21003 ft 359 kts 94°
2026-05-07 22:33 53.52080 -4.90657 21002 ft 359 kts 94°
2026-05-07 22:33 53.51939 -4.86470 21006 ft 359 kts 94°
2026-05-07 22:34 53.51798 -4.82289 21007 ft 358 kts 94°
2026-05-07 22:34 53.51656 -4.78109 21010 ft 358 kts 94°
2026-05-07 22:34 53.51513 -4.73933 21012 ft 358 kts 94°
2026-05-07 22:34 53.51369 -4.69745 21012 ft 358 kts 94°
2026-05-07 22:35 53.51224 -4.65566 21013 ft 358 kts 94°
2026-05-07 22:35 53.51078 -4.61388 21014 ft 358 kts 94°
2026-05-07 22:35 53.50932 -4.57267 21014 ft 358 kts 94°
2026-05-07 22:35 53.50783 -4.53096 21015 ft 358 kts 94°
2026-05-07 22:36 53.50632 -4.48921 21015 ft 358 kts 94°
2026-05-07 22:36 53.50480 -4.44743 21016 ft 358 kts 94°
2026-05-07 22:36 53.50327 -4.40584 21018 ft 358 kts 94°
2026-05-07 22:36 53.50172 -4.36417 21015 ft 357 kts 94°
2026-05-07 22:37 53.50015 -4.32247 21017 ft 357 kts 94°
2026-05-07 22:37 53.49860 -4.28139 21017 ft 357 kts 94°
2026-05-07 22:37 53.49701 -4.23981 21017 ft 357 kts 94°
2026-05-07 22:37 53.49541 -4.19820 21015 ft 357 kts 94°
2026-05-07 22:38 53.49378 -4.15645 21018 ft 357 kts 94°
2026-05-07 22:38 53.49216 -4.11490 21018 ft 357 kts 94°
2026-05-07 22:38 53.49052 -4.07335 21023 ft 357 kts 94°
2026-05-07 22:38 53.48886 -4.03176 21021 ft 357 kts 94°
2026-05-07 22:39 53.48719 -3.99017 21013 ft 357 kts 95°
2026-05-07 22:39 53.48463 -3.94835 20503 ft 362 kts 99°
2026-05-07 22:39 53.47916 -3.90787 20042 ft 359 kts 109°
2026-05-07 22:39 53.47051 -3.86876 19574 ft 356 kts 114°
2026-05-07 22:40 53.46105 -3.83054 19117 ft 353 kts 114°
2026-05-07 22:40 53.45187 -3.79239 18659 ft 351 kts 112°
2026-05-07 22:40 53.44330 -3.75417 18191 ft 349 kts 111°
2026-05-07 22:40 53.43524 -3.71586 17684 ft 347 kts 110°
2026-05-07 22:41 53.42739 -3.67768 17181 ft 345 kts 110°
2026-05-07 22:41 53.41969 -3.64033 17046 ft 335 kts 110°
2026-05-07 22:41 53.41242 -3.60381 17020 ft 325 kts 107°
2026-05-07 22:41 53.40829 -3.56752 17009 ft 310 kts 96°
2026-05-07 22:42 53.40704 -3.53272 17010 ft 296 kts 92°
2026-05-07 22:42 53.40648 -3.49875 17019 ft 290 kts 92°
2026-05-07 22:42 53.40578 -3.46474 17027 ft 293 kts 93°
2026-05-07 22:42 53.40479 -3.43065 17034 ft 294 kts 94°
2026-05-07 22:43 53.40356 -3.39633 17035 ft 295 kts 95°
2026-05-07 22:43 53.40218 -3.36206 17038 ft 296 kts 95°
2026-05-07 22:43 53.40071 -3.32762 17038 ft 296 kts 95°
2026-05-07 22:43 53.39919 -3.29317 17037 ft 296 kts 95°
2026-05-07 22:44 53.39767 -3.25924 17035 ft 296 kts 95°
2026-05-07 22:44 53.39612 -3.22509 17121 ft 292 kts 95°
2026-05-07 22:44 53.39452 -3.19030 16485 ft 306 kts 95°
2026-05-07 22:44 53.39295 -3.15464 15980 ft 310 kts 92°
2026-05-07 22:45 53.39633 -3.11890 15368 ft 316 kts 63°
2026-05-07 22:45 53.40808 -3.08816 14940 ft 315 kts 53°
2026-05-07 22:45 53.42074 -3.05787 14419 ft 318 kts 56°
2026-05-07 22:45 53.43215 -3.02594 13910 ft 321 kts 60°
2026-05-07 22:46 53.44284 -2.99297 13367 ft 323 kts 61°
2026-05-07 22:46 53.45360 -2.95967 12796 ft 325 kts 60°
2026-05-07 22:46 53.46439 -2.92694 12279 ft 326 kts 60°
2026-05-07 22:46 53.47505 -2.89313 11701 ft 328 kts 69°
2026-05-07 22:47 53.47939 -2.85590 11213 ft 323 kts 86°
2026-05-07 22:47 53.48094 -2.81885 10842 ft 314 kts 84°
2026-05-07 22:47 53.48395 -2.78277 10488 ft 312 kts 81°
2026-05-07 22:47 53.48766 -2.74732 10140 ft 303 kts 80°
2026-05-07 22:48 53.49138 -2.71330 9768 ft 289 kts 80°
2026-05-07 22:48 53.49499 -2.68081 9367 ft 278 kts 79°
2026-05-07 22:48 53.49842 -2.64983 8963 ft 268 kts 79°
2026-05-07 22:48 53.50178 -2.61952 8563 ft 261 kts 79°
2026-05-07 22:49 53.50503 -2.58994 8171 ft 255 kts 79°
2026-05-07 22:49 53.50813 -2.56143 8043 ft 238 kts 79°
2026-05-07 22:49 53.51102 -2.53460 8040 ft 232 kts 81°
2026-05-07 22:49 53.51218 -2.50766 8014 ft 233 kts 91°
2026-05-07 22:50 53.51154 -2.47972 7519 ft 242 kts 94°
2026-05-07 22:50 53.51041 -2.45181 7113 ft 237 kts 95°
2026-05-07 22:50 53.50918 -2.42451 6668 ft 233 kts 95°
2026-05-07 22:50 53.50788 -2.39744 6196 ft 230 kts 95°
2026-05-07 22:51 53.50660 -2.37102 6081 ft 227 kts 95°
2026-05-07 22:51 53.50537 -2.34538 6048 ft 217 kts 95°
2026-05-07 22:51 53.50417 -2.32080 6058 ft 203 kts 95°
2026-05-07 22:51 53.50304 -2.29793 6039 ft 193 kts 95°
2026-05-07 22:52 53.50193 -2.27580 6039 ft 190 kts 95°
2026-05-07 22:52 53.50081 -2.25320 5752 ft 197 kts 95°
2026-05-07 22:52 53.49969 -2.23049 5438 ft 193 kts 95°
2026-05-07 22:52 53.49864 -2.20837 5119 ft 186 kts 95°
2026-05-07 22:53 53.49768 -2.18703 4807 ft 181 kts 95°
2026-05-07 22:53 53.49673 -2.16606 4491 ft 178 kts 98°
2026-05-07 22:53 53.49193 -2.14776 4151 ft 172 kts 129°
2026-05-07 22:53 53.48493 -2.13179 3860 ft 170 kts 123°
2026-05-07 22:54 53.47922 -2.11460 3563 ft 168 kts 120°
2026-05-07 22:54 53.47366 -2.09732 3240 ft 167 kts 120°
2026-05-07 22:54 53.46663 -2.08254 3002 ft 159 kts 149°
2026-05-07 22:54 53.45612 -2.08093 3002 ft 159 kts 201°
2026-05-07 22:55 53.44660 -2.09143 2833 ft 171 kts 213°
2026-05-07 22:55 53.43760 -2.10307 2614 ft 158 kts 222°
2026-05-07 22:55 53.43073 -2.11599 2450 ft 145 kts 227°
2026-05-07 22:55 53.42422 -2.12919 2199 ft 143 kts 227°
2026-05-07 22:56 53.41794 -2.14194 2072 ft 146 kts 227°
2026-05-07 22:56 53.41162 -2.15516 1841 ft 142 kts 227°
2026-05-07 22:56 53.40553 -2.16775 1662 ft 141 kts 227°
2026-05-07 22:56 53.39939 -2.18050 1495 ft 141 kts 227°
2026-05-07 22:57 53.39318 -2.19335 1297 ft 142 kts 227°
2026-05-07 22:57 53.38697 -2.20613 1106 ft 142 kts 227°
2026-05-07 22:57 53.38078 -2.21891 928 ft 140 kts 229°
2026-05-07 22:57 53.37460 -2.23173 731 ft 141 kts 230°
2026-05-07 22:58 53.36844 -2.24448 546 ft 140 kts 231°
2026-05-07 22:58 53.36231 -2.25671 352 ft 131 kts 234°
2026-05-07 22:58 53.35721 -2.26775 244 ft 109 kts 232°
2026-05-07 22:58 53.35363 -2.27517 239 ft 39 kts 232°
2026-05-07 22:59 53.35254 -2.27918 231 ft 37 kts 258°
2026-05-07 22:59 53.35234 -2.28096 232 ft 12 kts 261°
2026-05-07 22:59 53.35255 -2.28197 232 ft 9 kts 340°
2026-05-07 22:59 53.35312 -2.28153 233 ft 9 kts 39°
2026-05-07 23:00 53.35358 -2.28081 232 ft 9 kts 41°
2026-05-07 23:00 53.35404 -2.28013 232 ft 9 kts 42°
2026-05-07 23:00 53.35449 -2.27947 232 ft 8 kts 36°
2026-05-07 23:00 53.35494 -2.27891 232 ft 8 kts 52°
2026-05-07 23:01 53.35529 -2.27817 232 ft 8 kts 46°
2026-05-07 23:01 53.35565 -2.27749 232 ft 8 kts 49°
2026-05-07 23:01 53.35602 -2.27684 232 ft 8 kts 43°
2026-05-07 23:01 53.35639 -2.27626 232 ft 7 kts 46°
2026-05-07 23:02 53.35672 -2.27563 232 ft 7 kts 51°
2026-05-07 23:02 53.35702 -2.27499 232 ft 7 kts 53°
2026-05-07 23:02 53.35731 -2.27435 232 ft 9 kts 50°
2026-05-07 23:02 53.35803 -2.27325 232 ft 13 kts 15°
2026-05-07 23:03 53.35884 -2.27318 232 ft 0 kts 359°
2026-05-07 23:03 53.35888 -2.27318 232 ft 1 kts 359°
2026-05-07 23:03 53.35896 -2.27318 232 ft 2 kts
2026-05-07 23:03 53.35916 -2.27319 232 ft 3 kts 350°
2026-05-07 23:04 53.35935 -2.27364 232 ft 4 kts 274°
2026-05-07 23:04 53.35935 -2.27370 232 ft 2 kts 275°
2026-05-07 23:04 53.35936 -2.27384 232 ft 2 kts 275°
2026-05-07 23:04 53.35937 -2.27401 232 ft 1 kts 275°
2026-05-07 23:05 53.35937 -2.27402 232 ft 0 kts 275°